TimeCDT,TemperatureF,Dew PointF,Humidity,Sea Level PressureIn,VisibilityMPH,Wind Direction,Wind SpeedMPH,Gust SpeedMPH,PrecipitationIn,Events,Conditions,WindDirDegrees,DateUTC
12:15 AM,57.2,50.0,77,29.89,10.0,East,5.8,-,N/A,,Overcast,90,2013-06-09 05:15:00
12:35 AM,57.2,50.0,77,29.89,10.0,East,5.8,-,N/A,,Overcast,100,2013-06-09 05:35:00
12:53 AM,57.2,50.0,77,29.89,10.0,East,5.8,-,N/A,,Mostly Cloudy,90,2013-06-09 05:53:00
1:15 AM,57.2,50.0,77,29.89,10.0,East,6.9,-,N/A,,Mostly Cloudy,90,2013-06-09 06:15:00
1:35 AM,57.2,50.0,77,29.89,10.0,ENE,4.6,-,N/A,,Scattered Clouds,70,2013-06-09 06:35:00
1:52 AM,55.4,50.0,82,29.88,10.0,ENE,4.6,-,N/A,,Mostly Cloudy,70,2013-06-09 06:52:00
2:15 AM,55.4,50.0,82,29.88,10.0,ENE,4.6,-,N/A,,Mostly Cloudy,70,2013-06-09 07:15:00
2:35 AM,55.4,50.0,82,29.88,10.0,East,5.8,-,N/A,,Scattered Clouds,80,2013-06-09 07:35:00
2:53 AM,55.4,50.0,82,29.87,10.0,ENE,4.6,-,N/A,,Clear,70,2013-06-09 07:53:00
3:14 AM,55.4,50.0,82,29.87,10.0,ENE,4.6,-,N/A,,Scattered Clouds,70,2013-06-09 08:14:00
3:34 AM,55.4,51.8,88,29.87,10.0,East,6.9,-,N/A,,Mostly Cloudy,80,2013-06-09 08:34:00
3:53 AM,55.4,51.8,88,29.87,10.0,East,6.9,-,N/A,,Overcast,100,2013-06-09 08:53:00
4:15 AM,55.4,51.8,88,29.86,10.0,East,6.9,-,N/A,,Overcast,80,2013-06-09 09:15:00
4:35 AM,55.4,51.8,88,29.86,10.0,ENE,5.8,-,N/A,Rain,Light Rain,70,2013-06-09 09:35:00
4:53 AM,55.4,51.8,88,29.86,10.0,East,8.1,-,N/A,,Overcast,80,2013-06-09 09:53:00
5:15 AM,55.4,51.8,88,29.86,10.0,East,6.9,-,N/A,,Light Drizzle,80,2013-06-09 10:15:00
5:35 AM,53.6,51.8,94,29.86,10.0,East,5.8,-,N/A,,Mostly Cloudy,80,2013-06-09 10:35:00
5:53 AM,53.6,51.8,94,29.85,10.0,East,6.9,-,N/A,Rain,Light Rain,80,2013-06-09 10:53:00
6:15 AM,53.6,51.8,94,29.85,10.0,East,6.9,-,N/A,Rain,Rain,80,2013-06-09 11:15:00
6:35 AM,53.6,51.8,94,29.85,10.0,East,8.1,-,N/A,Rain,Rain,80,2013-06-09 11:35:00
6:53 AM,53.6,51.8,94,29.85,10.0,East,8.1,-,0.01,Rain,Light Rain,80,2013-06-09 11:53:00
7:14 AM,53.6,51.8,94,29.85,10.0,East,6.9,-,0.01,Rain,Light Rain,80,2013-06-09 12:14:00
7:35 AM,53.6,51.8,94,29.85,10.0,ENE,8.1,-,0.02,Rain,Light Rain,70,2013-06-09 12:35:00
7:53 AM,53.6,51.8,94,29.85,7.0,East,10.4,-,0.03,Rain,Light Rain,90,2013-06-09 12:53:00
8:15 AM,53.6,51.8,94,29.85,7.0,ENE,8.1,-,0.01,Rain,Light Rain,70,2013-06-09 13:15:00
8:35 AM,53.6,51.8,94,29.85,7.0,East,10.4,-,0.02,Rain,Light Rain,80,2013-06-09 13:35:00
8:53 AM,53.6,51.8,94,29.85,7.0,East,8.1,-,0.03,Rain,Light Rain,90,2013-06-09 13:53:00
9:15 AM,53.6,51.8,94,29.85,7.0,ENE,9.2,-,0.02,Rain,Rain,70,2013-06-09 14:15:00
9:35 AM,53.6,51.8,94,29.85,10.0,ENE,10.4,16.1,0.05,Rain,Light Rain,70,2013-06-09 14:35:00
9:53 AM,53.6,51.8,94,29.85,7.0,East,11.5,17.3,0.06,Rain,Light Rain,80,2013-06-09 14:53:00
10:15 AM,53.6,51.8,94,29.85,10.0,East,12.7,16.1,0.01,Rain,Rain,80,2013-06-09 15:15:00
10:35 AM,53.6,51.8,94,29.85,10.0,ENE,8.1,18.4,0.04,Rain,Rain,60,2013-06-09 15:35:00
10:52 AM,53.6,51.8,94,29.85,7.0,ENE,9.2,-,0.06,Rain,Rain,70,2013-06-09 15:52:00
11:15 AM,53.6,51.8,94,29.85,4.0,ENE,9.2,-,0.01,Rain,Light Rain,60,2013-06-09 16:15:00
11:35 AM,53.6,51.8,94,29.85,5.0,ENE,10.4,-,0.04,Rain,Rain,70,2013-06-09 16:35:00
11:53 AM,53.6,51.8,94,29.85,7.0,ENE,9.2,-,0.07,Rain,Rain,70,2013-06-09 16:53:00
12:14 PM,53.6,51.8,94,29.86,3.0,ENE,9.2,16.1,0.03,Rain,Light Rain,70,2013-06-09 17:14:00
12:35 PM,53.6,51.8,94,29.85,2.5,ENE,10.4,16.1,0.06,Rain,Light Rain,70,2013-06-09 17:35:00
12:53 PM,53.6,51.8,94,29.85,3.0,ENE,10.4,-,0.10,Rain,Light Rain,70,2013-06-09 17:53:00
1:15 PM,53.6,51.8,94,29.85,1.8,ENE,10.4,-,N/A,Rain,Rain,70,2013-06-09 18:15:00
1:35 PM,53.6,51.8,94,29.85,1.5,East,9.2,-,N/A,Rain,Light Rain,80,2013-06-09 18:35:00
1:53 PM,53.6,51.8,94,29.85,2.0,ENE,10.4,-,0.01,Rain,Light Rain,70,2013-06-09 18:53:00
2:15 PM,53.6,51.8,94,29.85,4.0,East,8.1,-,N/A,,Overcast,90,2013-06-09 19:15:00
2:35 PM,53.6,51.8,94,29.84,2.0,East,9.2,-,N/A,,Overcast,80,2013-06-09 19:35:00
2:53 PM,53.6,51.8,94,29.84,3.0,East,8.1,18.4,N/A,Rain,Light Rain,100,2013-06-09 19:53:00
3:15 PM,53.6,51.8,94,29.84,10.0,East,9.2,-,N/A,,Overcast,100,2013-06-09 20:15:00
3:35 PM,53.6,51.8,94,29.83,7.0,East,12.7,18.4,N/A,,Overcast,100,2013-06-09 20:35:00
3:52 PM,53.6,51.8,94,29.83,5.0,East,11.5,-,N/A,,Overcast,90,2013-06-09 20:52:00
4:14 PM,53.6,51.8,94,29.83,7.0,East,6.9,-,N/A,,Overcast,90,2013-06-09 21:14:00
4:34 PM,53.6,51.8,94,29.83,10.0,East,10.4,-,N/A,,Overcast,90,2013-06-09 21:34:00
4:53 PM,53.6,51.8,94,29.83,10.0,East,8.1,-,N/A,,Overcast,90,2013-06-09 21:53:00
5:15 PM,53.6,51.8,94,29.84,2.0,East,6.9,-,N/A,,Drizzle,90,2013-06-09 22:15:00
5:35 PM,53.6,51.8,94,29.84,2.0,East,8.1,-,N/A,,Drizzle,100,2013-06-09 22:35:00
5:53 PM,53.6,51.8,94,29.83,2.0,East,5.8,-,N/A,,Drizzle,90,2013-06-09 22:53:00
6:15 PM,53.6,51.8,94,29.84,2.0,East,5.8,-,0.01,,Heavy Drizzle,100,2013-06-09 23:15:00
6:35 PM,53.6,51.8,94,29.84,2.5,Calm,Calm,-,0.01,,Drizzle,0,2013-06-09 23:35:00
6:53 PM,53.6,51.8,94,29.84,4.0,East,6.9,-,0.01,,Overcast,100,2013-06-09 23:53:00
7:15 PM,53.6,51.8,94,29.84,3.0,East,3.5,-,N/A,,Overcast,80,2013-06-10 00:15:00
7:34 PM,53.6,51.8,94,29.84,3.0,East,4.6,-,N/A,,Overcast,100,2013-06-10 00:34:00
7:53 PM,53.6,51.8,94,29.84,2.5,East,4.6,-,N/A,,Overcast,100,2013-06-10 00:53:00
8:15 PM,53.6,51.8,94,29.84,1.5,East,3.5,-,N/A,Rain,Light Rain,100,2013-06-10 01:15:00
8:34 PM,53.6,51.8,94,29.85,1.2,East,3.5,-,N/A,,Light Drizzle,100,2013-06-10 01:34:00
8:53 PM,53.6,51.8,94,29.85,1.0,Calm,Calm,-,N/A,,Overcast,0,2013-06-10 01:53:00
9:15 PM,53.6,51.8,94,29.85,2.0,Calm,Calm,-,0.01,Rain,Rain,0,2013-06-10 02:15:00
9:35 PM,53.6,51.8,94,29.85,2.0,Calm,Calm,-,0.01,,Light Drizzle,0,2013-06-10 02:35:00
9:53 PM,53.6,51.8,94,29.85,1.8,Calm,Calm,-,0.01,,Overcast,0,2013-06-10 02:53:00
10:14 PM,53.6,51.8,94,29.85,2.0,Calm,Calm,-,N/A,,Overcast,0,2013-06-10 03:14:00
10:35 PM,53.6,51.8,94,29.86,2.0,Calm,Calm,-,N/A,,Overcast,0,2013-06-10 03:35:00
10:53 PM,53.6,51.8,94,29.86,2.0,Calm,Calm,-,N/A,,Overcast,0,2013-06-10 03:53:00
11:14 PM,53.6,51.8,94,29.85,2.5,Calm,Calm,-,N/A,,Overcast,0,2013-06-10 04:14:00
11:35 PM,53.6,51.8,94,29.85,2.0,Calm,Calm,-,N/A,,Overcast,0,2013-06-10 04:35:00
11:52 PM,53.6,51.8,94,29.85,2.5,Calm,Calm,-,N/A,,Overcast,0,2013-06-10 04:52:00